Location: Asis
(14.1331°N, 120.9056°E)
Time: 09:27:12
(UTC+00:00)

USA 238 - Pass Details

Date: 15 January 2026
Orbit: 883 x 1328 km, 63.4° (Epoch: 10 January)

Event Time Altitude Azimuth Distance (km) Brightness Sun altitude
Rises 11:14:01 0° 340° (NNW) 4,177 6.8 -20.7°
Reaches altitude 10° 11:16:46 10° 343° (NNW) 3,254 6.2 -21.3°
Maximum altitude 11:24:45 69° 65° (ENE) 1,398 4.0 -23.2°
Drops below altitude 10° 11:32:57 10° 148° (SSE) 3,347 6.1 -25.1°
Sets 11:35:48 0° 150° (SSE) 4,302 6.7 -25.7°
